Regional Weather Roundup
Issued by NWS

Home | Current Version | Previous Version | Graphics & Text | Print | Product List | Glossary On
Versions: 1 2 3 4 5 6 7 8 9 10 11 12 13 14 15 16 17 18 19 20 21 22 23 24 25 26 27 28 29 30 31 32 33 34 35 36 37 38 39 40 41 42 43 44 45 46 47 48 49 50
000
ASUS45 KABQ 201410
RWRNM
NEW MEXICO REGIONAL WEATHER ROUNDUP
NATIONAL WEATHER SERVICE ALBUQUERQUE NM
700 AM MST TUE FEB 20 2018

NOTE: "FAIR" MEANS FEW OR NO CLOUDS BELOW 12,000 FEET AGL WITH NO
       SIGNIFICANT WEATHER OR OBSTRUCTIONS TO VISION.

      THIS PRODUCT IS RELEASED AS TWO VERSIONS.  ONE VERSION NEAR
      THE TOP OF THE HOUR CONTAINING PRELIMINARY DATA FROM ALBUQUERQUE
      AND OTHER STATIONS.  A FINAL VERSION WITH ADDITIONAL DATA IS
      ISSUED ABOUT 10 MINUTES AFTER THE HOUR.

NMZ501-503-504-510>518-201500-
NORTHWEST PLATEAU/NORTHCENTRAL MOUNTAINS

CITY           SKY/WX    TMP DP  RH WIND       PRES   REMARKS
FARMINGTON     FAIR      10   8  92 E3        29.91R
LOS ALAMOS     CLOUDY    24   8  50 S7        29.86R WCI  16
SANTA FE       CLOUDY    25  14  63 W8        29.88R WCI  16
TAOS           FLURRIES  21  10  62 SW12      29.89R WCI   9
ANGEL FIRE     LGT SNOW  15   6  68 W10       29.80R WCI   2

$$
NMZ402-403-502-505>509-201500-
WESTCENTRAL MOUNTAINS/SOUTHWEST MOUNTAINS

CITY           SKY/WX    TMP DP  RH WIND       PRES   REMARKS
GALLUP         CLOUDY    16  11  80 S3        29.91R
GRANTS         CLOUDY    21  14  73 NW5       29.94R WCI  15
SILVER CITY    CLOUDY    35  32  88 N10       29.92S WCI  27

$$
NMZ407-409-411-412-201500-
SOUTHERN DESERTS

CITY           SKY/WX    TMP DP  RH WIND       PRES   REMARKS
DEMING         CLOUDY    42  35  76 W7        29.93R
LAS CRUCES     CLOUDY    43  35  73 CALM      29.95R
HOLLOMAN AFB   MOCLDY    49  30  49 CALM      29.97R
ALAMOGORDO     FAIR      48  28  46 W12       29.95R
T OR C         CLOUDY    45  33  63 SW5       29.89R

$$
NMZ519>523-201500-
CENTRAL VALLEYS/CENTRAL HIGHLANDS

CITY           SKY/WX    TMP DP  RH WIND       PRES   REMARKS
ALBUQUERQUE    CLOUDY    29  16  58 N7        29.95R WCI  22
DOUBLE EAGLE   MOCLDY    27  14  59 NW6       29.94R WCI  20
MORIARTY ARPT  FAIR      26  18  70 W7        29.86R WCI  19
CLINES CORNERS FAIR      20  12  71 NW22G39   29.82R WCI   3
BELEN          CLOUDY    31  17  56 NW5       29.98R WCI  26
SOCORRO        CLOUDY    32  18  55 N15       29.96R WCI  22

$$
NMZ524>526-539-540-201500-
SOUTHCENTRAL MOUNTAINS

CITY           SKY/WX    TMP DP  RH WIND       PRES   REMARKS
RUIDOSO        NOT AVBL

$$
NMZ527>531-201500-
NORTHEAST HIGHLANDS/NORTHEAST PLAINS

CITY           SKY/WX    TMP DP  RH WIND       PRES   REMARKS
LAS VEGAS      FAIR      31  15  52 W21G31    29.77R WCI  18
RATON          MOCLDY    28   9  44 SW9       29.77R WCI  19
CLAYTON        CLOUDY    15  11  83 NE13      29.87R WCI   1

$$
NMZ532>537-201500-
EASTCENTRAL PLAINS

CITY           SKY/WX    TMP DP  RH WIND       PRES   REMARKS
SANTA ROSA     CLOUDY    36  18  49 NW6       29.87R WCI  31
TUCUMCARI      CLOUDY    29  17  61 E12       29.86R WCI  19
CANNON AFB     FAIR      38  37  95 W3        29.84R
CLOVIS AIRPORT NOT AVBL

$$
NMZ028-029-538-201500-
SOUTHEAST PLAINS

CITY           SKY/WX    TMP DP  RH WIND       PRES   REMARKS
ROSWELL        FAIR      48  29  47 E5        29.82R
ARTESIA        FAIR      52  32  46 CALM      29.87R
CARLSBAD       FAIR      55  36  48 W17       29.85R
HOBBS          CLEAR     39  34  81 SW10      29.86R WCI  32


$$



USA.gov is the U.S. government's official web portal to all federal, state and local government web resources and services.